When you browse on this site, cookies collect data to enhance your experience and personalize the content and advertising you see.
Visit our Privacy Policy to learn more. By continuing to use the site, you agree to this use of cookies and data.
  • en Suisse
  • Liste des pays
  • À 7 jours
  • Température de l'eau
  • Carte satellitaire
  • Carte météo
  • Widgets météo
  • user-avatar
    Se connecter

    Météo par heure à Knapy

    Ce jour, 16 Février, Samedi

    Heure Température Précipitation Vent Pression Humidité
    00:00 +3°C° 0 mm 1 m/s 758 mmHg 91%
    01:00 +2°C° 0 mm 2 m/s 757 mmHg 88%
    02:00 +2°C° 0 mm 2 m/s 757 mmHg 88%
    03:00 +1°C° 0 mm 2 m/s 757 mmHg 88%
    04:00 +1°C° 0 mm 2 m/s 757 mmHg 88%
    05:00 +1°C° 0 mm 2 m/s 757 mmHg 87%
    06:00 +1°C° 0 mm 2 m/s 757 mmHg 86%
    07:00 +1°C° 0 mm 2 m/s 757 mmHg 83%
    08:00 +2°C° 0 mm 2 m/s 756 mmHg 75%
    09:00 +4°C° 0 mm 2 m/s 756 mmHg 68%
    10:00 +5°C° 0 mm 2 m/s 756 mmHg 60%
    11:00 +5°C° 0 mm 3 m/s 756 mmHg 55%
    12:00 +8°C° 0 mm 3 m/s 756 mmHg 50%
    13:00 +9°C° 0 mm 2 m/s 755 mmHg 41%
    14:00 +9°C° 0 mm 3 m/s 755 mmHg 43%
    15:00 +9°C° 0 mm 3 m/s 755 mmHg 45%
    16:00 +9°C° 0 mm 3 m/s 754 mmHg 46%
    17:00 +8°C° 0 mm 3 m/s 754 mmHg 50%
    18:00 +7°C° 0 mm 3 m/s 754 mmHg 54%
    19:00 +5°C° 0 mm 4 m/s 754 mmHg 58%
    20:00 +5°C° 0 mm 4 m/s 754 mmHg 60%
    21:00 +4°C° 0 mm 4 m/s 754 mmHg 62%
    22:00 +4°C° 0 mm 4 m/s 754 mmHg 64%
    23:00 +3°C° 0 mm 3 m/s 754 mmHg 63%

    Demain, 17 Février, Dimanche

    Heure Température Précipitation Vent Pression Humidité
    00:00 +3°C° 0 mm 3 m/s 754 mmHg 62%
    01:00 +2°C° 0 mm 3 m/s 754 mmHg 61%
    02:00 +2°C° 0 mm 3 m/s 754 mmHg 63%
    03:00 +2°C° 0 mm 3 m/s 754 mmHg 64%
    04:00 +1°C° 0 mm 3 m/s 753 mmHg 65%
    05:00 +1°C° 0 mm 3 m/s 754 mmHg 68%
    06:00 +1°C° 0 mm 3 m/s 754 mmHg 70%
    07:00 +1°C° 0 mm 3 m/s 754 mmHg 72%
    08:00 +2°C° 0 mm 3 m/s 754 mmHg 69%
    09:00 +3°C° 0 mm 3 m/s 754 mmHg 66%
    10:00 +4°C° 0 mm 4 m/s 754 mmHg 63%
    11:00 +6°C° 0 mm 4 m/s 754 mmHg 60%
    12:00 +7°C° 0 mm 4 m/s 754 mmHg 57%
    13:00 +9°C° 0 mm 3 m/s 753 mmHg 54%
    14:00 +9°C° 0 mm 3 m/s 753 mmHg 56%
    15:00 +9°C° 0 mm 2 m/s 753 mmHg 58%
    16:00 +9°C° 0 mm 2 m/s 753 mmHg 59%
    17:00 +8°C° 0 mm 2 m/s 753 mmHg 63%
    18:00 +8°C° 0 mm 1 m/s 753 mmHg 66%
    19:00 +7°C° 0 mm 1 m/s 753 mmHg 69%
    20:00 +6°C° 0 mm 1 m/s 753 mmHg 70%
    21:00 +6°C° 0 mm 1 m/s 753 mmHg 71%
    22:00 +5°C° 0 mm 0 m/s 753 mmHg 72%
    23:00 +5°C° 0 mm 1 m/s 753 mmHg 72%

    Après-demain, 18 Février, Lundi

    Heure Température Précipitation Vent Pression Humidité
    00:00 +5°C° 0 mm 1 m/s 753 mmHg 73%
    01:00 +5°C° 0 mm 1 m/s 753 mmHg 73%
    02:00 +4°C° 0 mm 1 m/s 753 mmHg 75%
    03:00 +4°C° 0 mm 1 m/s 753 mmHg 76%
    04:00 +4°C° 0 mm 1 m/s 752 mmHg 78%
    05:00 +3°C° 0 mm 1 m/s 752 mmHg 79%
    06:00 +2°C° 0 mm 2 m/s 752 mmHg 79%
    07:00 +2°C° 0 mm 2 m/s 752 mmHg 80%
    08:00 +3°C° 0 mm 2 m/s 752 mmHg 74%
    09:00 +4°C° 0 mm 2 m/s 752 mmHg 69%
    10:00 +6°C° 0 mm 2 m/s 752 mmHg 64%
    11:00 +7°C° 0 mm 2 m/s 752 mmHg 59%
    12:00 +8°C° 0 mm 2 m/s 752 mmHg 53%
    13:00 +9°C° 0 mm 2 m/s 751 mmHg 48%
    14:00 +9°C° 0 mm 2 m/s 751 mmHg 50%
    15:00 +9°C° 0 mm 2 m/s 751 mmHg 52%
    16:00 +9°C° 0 mm 2 m/s 750 mmHg 54%
    17:00 +8°C° 0 mm 2 m/s 750 mmHg 58%
    18:00 +7°C° 0 mm 2 m/s 750 mmHg 61%
    19:00 +6°C° 0 mm 2 m/s 750 mmHg 65%
    20:00 +6°C° 0 mm 2 m/s 750 mmHg 68%
    21:00 +4°C° 0 mm 3 m/s 750 mmHg 72%
    22:00 +4°C° 0 mm 3 m/s 750 mmHg 75%
    23:00 +3°C° 0 mm 3 m/s 750 mmHg 77%

    19 Février, Mardi

    Heure Température Précipitation Vent Pression Humidité
    00:00 +3°C° 0 mm 3 m/s 750 mmHg 79%
    01:00 +2°C° 0 mm 3 m/s 750 mmHg 81%
    02:00 +2°C° 0 mm 3 m/s 749 mmHg 81%
    03:00 +1°C° 0 mm 3 m/s 749 mmHg 82%
    04:00 +1°C° 0 mm 3 m/s 749 mmHg 82%
    05:00 +1°C° 0 mm 3 m/s 749 mmHg 83%
    06:00 +1°C° 0 mm 3 m/s 748 mmHg 83%
    07:00 0°C° 0 mm 3 m/s 748 mmHg 84%
    08:00 +1°C° 0 mm 4 m/s 748 mmHg 78%
    09:00 +3°C° 0 mm 4 m/s 748 mmHg 72%
    10:00 +5°C° 0 mm 4 m/s 748 mmHg 67%
    11:00 +6°C° 0 mm 4 m/s 748 mmHg 63%
    12:00 +7°C° 0 mm 4 m/s 747 mmHg 59%
    13:00 +9°C° 0 mm 5 m/s 747 mmHg 55%
    14:00 +10°C° 0 mm 4 m/s 747 mmHg 55%
    15:00 +10°C° 0 mm 4 m/s 746 mmHg 55%
    16:00 +10°C° 0 mm 4 m/s 746 mmHg 55%
    17:00 +8°C° 0 mm 5 m/s 746 mmHg 59%
    18:00 +7°C° 0 mm 5 m/s 746 mmHg 63%
    19:00 +5°C° 0 mm 6 m/s 747 mmHg 67%
    20:00 +6°C° 0.1 mm 5 m/s 747 mmHg 73%
    21:00 +6°C° 0.1 mm 5 m/s 747 mmHg 79%
    22:00 +5°C° 0.1 mm 5 m/s 748 mmHg 85%
    23:00 +5°C° 0 mm 5 m/s 748 mmHg 87%

    20 Février, Mercredi

    Heure Température Précipitation Vent Pression Humidité
    00:00 +3°C° 0 mm 5 m/s 748 mmHg 89%
    01:00 +2°C° 0 mm 5 m/s 749 mmHg 90%
    02:00 +2°C° 0 mm 5 m/s 749 mmHg 91%
    03:00 +2°C° 0 mm 5 m/s 749 mmHg 91%
    04:00 +1°C° 0 mm 5 m/s 749 mmHg 91%
    05:00 +1°C° 0 mm 5 m/s 749 mmHg 91%
    06:00 +1°C° 0 mm 5 m/s 750 mmHg 92%
    07:00 +1°C° 0 mm 5 m/s 750 mmHg 92%
    08:00 +1°C° 0 mm 5 m/s 750 mmHg 87%
    09:00 +2°C° 0 mm 6 m/s 751 mmHg 82%
    10:00 +3°C° 0 mm 6 m/s 751 mmHg 77%
    11:00 +4°C° 0 mm 7 m/s 751 mmHg 71%
    12:00 +4°C° 0 mm 7 m/s 751 mmHg 66%
    13:00 +5°C° 0 mm 7 m/s 751 mmHg 60%
    14:00 +5°C° 0 mm 6 m/s 751 mmHg 62%
    15:00 +5°C° 0 mm 6 m/s 752 mmHg 63%
    16:00 +6°C° 0 mm 5 m/s 752 mmHg 64%
    17:00 +5°C° 0 mm 5 m/s 752 mmHg 67%
    18:00 +5°C° 0 mm 4 m/s 752 mmHg 69%
    19:00 +5°C° 0 mm 3 m/s 752 mmHg 72%
    20:00 +5°C° 0 mm 3 m/s 753 mmHg 74%
    21:00 +5°C° 0 mm 3 m/s 753 mmHg 76%
    22:00 +4°C° 0 mm 3 m/s 753 mmHg 79%
    23:00 +4°C° 0 mm 4 m/s 753 mmHg 81%

    21 Février, Jeudi

    Heure Température Précipitation Vent Pression Humidité
    00:00 +4°C° 0 mm 4 m/s 753 mmHg 83%
    01:00 +4°C° 0 mm 4 m/s 753 mmHg 84%
    02:00 +4°C° 0 mm 4 m/s 753 mmHg 85%
    03:00 +4°C° 0 mm 4 m/s 753 mmHg 86%
    04:00 +3°C° 0 mm 4 m/s 753 mmHg 86%
    05:00 +3°C° 0.1 mm 4 m/s 753 mmHg 87%
    06:00 +3°C° 0.1 mm 4 m/s 753 mmHg 88%
    07:00 +3°C° 0.1 mm 4 m/s 753 mmHg 89%
    08:00 +3°C° 0.3 mm 4 m/s 753 mmHg 87%
    09:00 +4°C° 0.3 mm 4 m/s 753 mmHg 85%
    10:00 +4°C° 0.3 mm 4 m/s 753 mmHg 83%
    11:00 +5°C° 0 mm 5 m/s 753 mmHg 79%
    12:00 +6°C° 0 mm 5 m/s 752 mmHg 74%
    13:00 +7°C° 0 mm 5 m/s 752 mmHg 69%
    14:00 +7°C° 0 mm 4 m/s 752 mmHg 69%
    15:00 +7°C° 0 mm 4 m/s 751 mmHg 69%
    16:00 +8°C° 0 mm 3 m/s 751 mmHg 69%
    17:00 +8°C° 0.2 mm 3 m/s 751 mmHg 73%
    18:00 +7°C° 0.2 mm 3 m/s 751 mmHg 77%
    19:00 +7°C° 0.2 mm 3 m/s 751 mmHg 82%
    20:00 +7°C° 0.3 mm 3 m/s 751 mmHg 85%
    21:00 +5°C° 0.3 mm 3 m/s 751 mmHg 89%
    22:00 +5°C° 0.3 mm 4 m/s 751 mmHg 92%
    23:00 +5°C° 0.2 mm 4 m/s 751 mmHg 93%
    Voir plus